Theta_e
301 301 301 301 301 301 301 302 304 303 302 302 301 302 302 301 301 302 302 302 302 301 301 301 300 300 300 300 300 300 305 307 305 303 304 301 302 302 301 301 301 301 301 298 299
301 301 301 301 301 301 301 302 303 302 302 301 301 302 302 301 303 301 302 301 301 301 300 300 300 300 302 302 301 304 305 305 302 302 302 302 301 301 301 302 302 302 300 297 298
301 301 301 301 301 301 301 301 302 302 301 301 301 302 302 302 301 301 301 301 301 301 300 300 300 300 302 302 301 302 305 301 302 301 301 301 301 301 301 302 301 299 297 297 296
303 302 302 301 301 301 301 301 302 302 301 301 301 302 302 301 304 301 301 301 301 301 301 300 300 302 303 303 300 302 301 301 301 300 300 300 300 301 300 300 295 295 294 295 295
303 303 303 302 302 301 301 301 302 301 301 300 300 301 301 300 301 301 301 301 301 301 300 300 300 301 303 301 301 302 301 300 300 299 300 300 300 300 299 295 294 293 294 294 294
304 305 305 304 303 302 302 302 302 302 301 300 300 301 302 302 300 301 301 301 301 301 299 299 299 299 300 301 301 300 300 300 299 300 299 299 299 298 298 293 294 293 292 292 292
305 306 307 307 305 304 302 302 303 302 301 300 301 301 301 300 300 301 300 301 301 300 300 299 299 300 299 301 299 299 301 300 299 299 299 297 299 299 295 293 294 293 292 291 291
308 311 313 312 310 306 303 302 302 302 301 300 300 301 301 300 300 300 300 301 300 301 300 300 299 299 300 298 298 300 300 303 302 299 298 297 300 299 294 294 294 292 291 290 290
311 314 316 317 310 309 303 302 302 301 300 300 301 302 300 300 300 300 300 300 300 300 300 300 300 299 299 302 303 301 304 303 302 298 298 298 299 298 294 293 293 292 291 290 289
314 316 317 316 310 305 302 302 302 301 300 300 300 300 298 300 300 300 300 300 300 299 300 300 299 302 302 305 309 304 303 303 303 301 298 298 298 298 296 293 292 291 290 289 288
314 316 316 315 311 305 303 301 301 301 300 301 299 299 300 300 300 300 299 299 299 299 302 300 303 304 302 301 300 300 301 303 302 299 297 298 298 297 296 293 292 290 289 288 287
313 315 316 316 308 304 302 300 300 300 300 299 298 299 300 300 299 300 299 299 300 302 300 301 304 300 300 300 300 301 302 303 300 299 297 297 298 298 296 294 290 289 287 286 285
313 315 315 316 309 307 303 300 300 301 302 299 298 298 299 299 299 299 299 298 300 301 301 303 301 299 299 300 301 302 302 301 299 297 296 297 300 296 294 292 290 289 286 285 284
313 314 315 314 310 311 303 299 300 301 307 302 299 298 299 299 300 299 298 298 299 301 300 301 299 299 300 300 299 302 299 297 297 297 301 297 303 298 294 293 292 289 286 284 283
315 315 315 315 314 308 304 300 300 301 322 300 298 297 299 299 298 299 298 298 300 300 300 302 299 300 300 300 298 302 297 296 295 296 296 298 298 300 293 294 292 288 285 283 283
315 314 315 315 314 309 303 304 304 317 322 301 298 298 299 299 298 298 298 297 297 299 299 300 297 298 299 297 296 296 297 295 296 297 301 297 299 300 296 293 290 287 284 283 282
314 314 315 315 314 312 308 308 314 319 303 305 299 299 300 300 300 299 299 299 302 306 305 299 299 297 295 299 296 297 299 308 308 306 307 296 297 299 291 289 287 284 282 281 282
312 313 314 313 314 312 307 309 318 314 308 298 299 299 301 299 300 299 299 301 297 297 301 306 309 298 295 297 298 296 297 303 306 307 303 295 298 300 289 286 284 282 280 282 282
312 312 313 312 311 309 308 312 317 311 298 298 299 302 304 300 299 299 299 301 299 297 306 305 305 295 294 293 295 297 300 294 295 292 295 299 298 291 289 290 288 283 283 282 281
311 312 310 308 308 305 305 313 310 298 298 300 305 302 307 302 300 299 300 299 299 296 294 297 307 297 294 293 294 296 294 299 296 303 307 304 298 301 292 289 287 283 283 281 281
311 309 305 305 304 303 308 307 300 296 298 304 303 303 302 303 300 301 301 298 297 295 294 295 298 299 295 296 299 296 297 295 294 295 302 303 305 291 289 286 284 282 282 280 280
309 304 302 301 302 300 304 300 297 296 297 298 297 300 302 300 303 300 301 299 296 296 299 295 298 304 300 290 290 293 296 296 301 301 296 296 299 289 285 283 281 282 280 280 280
308 302 299 299 306 303 300 298 296 297 298 300 300 298 295 300 301 297 299 295 295 297 298 296 301 308 304 296 293 294 292 291 291 291 297 300 307 286 283 282 280 280 279 279 279
306 303 298 298 298 300 301 302 302 296 296 298 299 296 296 300 294 297 297 296 295 296 296 296 297 301 311 305 295 296 292 292 293 297 298 297 299 295 290 284 281 279 278 278 277
306 303 303 306 301 299 299 302 301 301 297 296 298 298 300 302 295 295 296 296 295 297 296 296 299 292 294 288 287 292 292 292 292 293 299 297 289 293 288 283 279 277 277 277 277
306 304 301 300 299 299 300 303 303 303 300 299 299 298 299 298 299 299 296 297 298 297 297 292 299 291 295 284 284 291 292 291 291 289 287 288 289 289 281 278 278 278 278 277 278
304 304 304 302 299 300 302 302 304 301 300 297 298 298 297 297 294 294 294 294 296 298 297 295 296 296 305 290 291 299 292 290 290 288 292 297 299 284 286 285 283 281 279 279 279
Wind_Speed
9 9 10 11 12 13 14 14 13 11 8 7 4 2 3 3 4 8 11 13 15 14 6 3 3 6 7 5 4 3 3 4 3 3 1 0 4 4 7 15 12 11 14 13 24
10 11 11 12 11 13 14 13 12 10 7 5 3 2 2 0 4 7 16 16 12 6 4 4 6 7 4 3 2 2 3 1 1 2 6 9 11 14 11 17 18 19 12 19 22
10 11 12 12 13 13 15 13 12 9 6 4 1 2 2 2 2 8 15 11 8 5 3 3 8 6 4 2 2 1 2 2 4 5 7 10 14 15 15 14 7 11 17 21 19
9 11 12 13 14 15 16 14 12 9 6 3 1 2 2 1 1 10 12 8 7 5 4 5 6 3 3 2 1 3 3 4 2 3 8 13 12 10 12 10 6 9 13 17 20
10 11 12 13 14 15 15 14 12 11 6 3 2 4 2 1 1 9 9 5 5 5 4 6 4 3 4 3 2 3 1 5 9 14 12 8 11 12 14 6 6 9 12 15 19
9 11 12 13 14 16 16 14 13 11 6 2 3 3 3 3 1 9 5 3 4 5 10 7 3 6 6 3 1 1 9 13 9 7 5 7 12 7 3 4 7 10 13 16 18
9 10 12 13 15 16 16 15 14 9 5 4 3 3 3 4 3 10 1 2 3 4 6 7 7 1 3 3 1 3 5 7 3 2 4 7 12 9 2 3 9 14 16 18 19
11 12 13 14 14 16 16 15 13 7 3 5 4 4 3 4 1 8 4 2 2 3 3 3 2 3 2 1 2 2 2 8 3 4 2 2 13 2 4 6 10 13 15 18 19
12 14 15 16 16 15 15 14 10 5 4 5 4 3 2 6 2 4 3 3 3 2 2 0 1 1 1 2 1 3 9 14 10 2 5 7 15 1 5 4 8 11 14 16 18
13 14 15 16 15 15 13 13 7 4 4 5 6 3 6 5 6 2 3 4 3 4 1 1 1 2 1 5 4 7 9 10 16 7 10 18 23 17 10 7 5 9 13 15 16
12 13 15 16 15 13 13 7 3 3 4 5 3 2 8 5 7 2 1 5 3 2 3 1 4 4 1 1 1 6 10 19 17 11 10 17 19 18 11 10 6 8 13 16 18
12 12 14 16 15 11 11 6 5 6 6 8 7 5 6 6 4 2 1 5 3 4 2 3 6 4 1 2 5 7 15 14 9 9 14 17 22 16 9 9 3 10 15 16 19
13 12 13 16 12 13 10 13 8 6 3 3 5 4 3 4 4 2 2 4 3 3 4 5 2 3 1 3 5 8 10 9 17 22 10 10 10 2 6 8 6 11 13 13 16
14 13 12 14 7 15 9 12 7 9 2 3 2 2 3 3 2 2 1 2 2 3 2 6 2 2 5 3 2 6 3 12 17 7 5 2 6 4 6 7 7 13 16 16 16
16 14 13 12 11 10 10 9 7 5 5 3 2 3 2 2 2 2 1 2 3 3 3 2 2 2 3 2 1 7 14 13 3 4 5 5 4 2 3 7 4 14 16 16 16
15 14 16 12 11 9 9 9 5 1 6 2 2 2 1 1 1 2 1 1 2 2 3 3 0 2 2 2 2 10 6 3 1 2 4 4 2 5 3 2 7 13 17 16 18
12 13 16 13 8 9 5 4 2 3 1 0 1 1 1 1 1 0 0 2 2 2 2 2 2 2 2 3 3 9 7 4 3 2 3 4 5 9 5 4 5 11 16 14 16
13 12 15 16 11 7 2 3 5 1 2 0 0 1 3 1 2 1 1 3 3 2 1 2 2 1 2 2 1 6 3 2 7 5 7 2 6 2 1 4 7 10 11 11 15
13 11 15 15 11 8 4 2 3 2 1 1 2 1 3 2 2 2 4 3 3 5 3 1 2 3 2 1 2 4 2 2 4 2 4 4 4 4 2 5 12 11 11 13 15
10 10 8 8 6 8 2 5 3 1 1 3 2 1 3 3 2 2 5 3 5 2 2 3 4 1 3 2 5 2 7 1 2 5 7 5 5 5 2 11 15 11 13 13 14
4 2 1 5 6 5 3 3 1 1 3 3 2 2 5 2 3 2 3 2 3 5 3 4 1 2 2 4 3 3 3 3 2 3 4 6 1 2 3 9 13 12 12 11 12
2 1 4 6 2 1 2 1 1 1 4 4 3 0 3 2 2 4 3 1 6 8 4 4 1 3 0 1 2 1 2 3 2 2 4 4 6 4 2 5 10 12 9 8 8
2 3 6 6 1 1 1 2 4 3 5 2 4 4 1 3 3 3 2 2 7 5 3 5 2 4 2 2 2 4 5 3 4 1 6 3 4 3 2 5 7 9 8 6 7
2 1 2 5 2 1 2 3 2 4 5 3 2 3 1 3 3 3 2 3 5 2 4 6 2 5 4 2 2 3 5 9 4 3 2 8 10 4 6 7 7 8 7 8 8
4 1 3 1 2 3 1 2 2 2 4 4 3 7 5 4 2 4 3 3 3 7 3 1 4 1 5 2 3 4 5 11 11 4 6 2 5 14 7 5 5 6 6 5 6
2 2 2 1 1 5 4 3 3 2 4 3 6 3 7 4 2 2 5 5 4 7 5 2 1 1 4 1 3 6 9 11 13 5 12 11 12 5 0 2 3 1 2 2 4
2 3 1 4 4 2 2 3 2 1 5 3 6 3 6 6 9 6 4 1 3 6 8 4 3 1 4 1 4 6 6 12 5 7 5 5 1 3 4 3 3 2 2 3 5
Wind_Direction
1 1 2 360 356 359 2 2 3 359 5 10 33 101 133 132 9 1 7 351 336 338 357 51 61 112 112 87 91 124 206 242 242 214 349 250 312 295 289 286 285 276 293 306 308
356 356 357 355 354 356 359 2 0 358 1 5 23 116 163 224 352 360 357 347 344 8 41 117 128 137 79 83 48 225 234 254 132 229 271 283 287 297 289 282 280 278 273 312 316
355 356 353 352 349 353 355 358 357 353 351 357 47 146 193 276 14 359 355 0 15 35 60 89 126 113 83 85 51 152 269 138 233 248 285 289 283 286 278 282 296 299 306 310 319
357 355 351 350 348 350 351 350 349 344 338 335 161 163 190 288 320 358 3 17 24 38 109 108 134 98 113 154 122 247 238 247 296 266 299 291 293 266 267 278 278 292 302 312 314
357 355 353 351 348 347 346 343 338 334 321 311 182 182 193 126 81 360 2 30 43 56 119 88 99 128 136 161 200 241 292 272 268 289 290 267 255 269 268 274 294 306 311 311 308
356 353 351 349 349 345 341 338 333 326 301 261 190 183 205 237 251 347 349 65 83 83 77 83 103 123 118 149 233 222 293 290 291 282 281 278 280 279 220 295 309 318 318 315 311
351 351 348 344 343 343 338 335 330 320 281 228 202 190 220 202 311 340 110 137 107 105 99 83 69 153 136 136 155 296 296 302 266 201 262 305 264 233 228 308 312 316 316 313 311
344 342 342 339 338 341 336 334 327 316 258 224 214 195 214 193 307 345 160 156 119 153 121 84 75 66 55 350 104 279 249 337 68 278 276 303 289 189 230 317 312 316 316 316 314
339 338 338 338 336 334 332 330 318 304 251 225 213 206 209 184 197 18 171 230 197 196 180 124 278 71 282 348 165 58 321 322 329 205 284 239 292 77 241 276 300 316 316 319 317
338 339 338 337 336 339 334 329 311 284 242 228 227 188 192 205 192 30 204 196 223 173 191 250 203 241 250 8 342 318 320 311 307 327 269 271 273 276 248 247 280 317 324 322 321
335 344 344 343 337 342 343 336 344 275 225 227 218 218 154 192 197 308 265 185 188 191 233 34 246 256 256 121 285 286 292 301 304 333 282 268 278 287 254 230 256 321 332 330 325
322 335 346 348 343 347 352 2 333 288 295 240 216 197 175 182 193 307 157 183 203 232 189 217 242 121 151 236 275 295 304 308 313 273 294 280 287 284 228 230 251 328 337 329 326
310 319 338 347 345 350 357 0 349 349 264 241 208 199 201 200 201 168 149 168 219 218 215 253 83 131 297 304 305 300 286 310 305 322 276 294 273 232 200 204 224 324 332 330 330
300 305 322 339 344 344 354 352 357 344 294 170 204 203 187 181 216 180 114 172 176 268 213 259 114 202 266 275 356 309 104 317 319 320 316 3 296 238 186 210 223 338 337 335 335
291 298 309 325 326 336 333 340 348 356 307 105 149 174 188 200 146 217 70 150 226 192 172 75 192 218 268 144 216 261 321 308 292 260 312 179 258 177 190 220 307 344 341 337 336
292 290 293 306 317 320 327 332 341 327 248 124 136 176 219 137 174 282 152 94 137 197 215 277 231 245 294 284 232 307 311 281 203 251 248 168 262 266 209 218 317 342 342 337 335
297 280 274 285 281 296 319 351 12 231 77 3 290 244 262 210 206 280 124 181 244 262 218 192 177 135 322 274 159 17 336 327 271 253 308 167 255 280 178 211 302 330 330 336 334
311 288 273 268 263 255 150 63 232 91 241 89 143 188 255 65 213 199 205 222 193 202 130 297 246 197 4 32 29 57 10 34 299 316 313 284 240 314 117 250 275 319 325 338 340
301 281 256 258 260 234 148 158 242 223 337 313 227 184 241 208 255 235 221 231 157 186 226 196 237 118 57 129 282 116 60 87 265 201 274 247 260 144 202 312 324 341 343 352 344
292 232 237 254 244 177 105 233 225 96 51 58 264 235 280 181 204 223 193 148 160 151 159 124 274 157 134 155 57 42 139 204 159 309 296 280 281 309 341 331 319 341 347 350 342
245 229 213 201 177 137 230 228 323 67 214 200 248 231 256 272 209 240 218 141 169 137 106 143 253 130 166 201 160 157 161 134 244 243 294 310 349 69 31 319 308 328 340 350 338
288 65 187 163 102 162 236 284 46 346 271 267 250 177 257 279 257 242 242 246 157 156 155 165 247 258 168 360 325 24 171 165 208 164 237 281 281 144 94 315 301 323 334 346 329
215 116 196 178 245 230 167 232 223 182 224 250 214 216 170 223 237 226 235 73 156 173 164 164 205 287 193 189 177 225 179 155 109 113 227 270 314 187 211 326 312 321 342 329 308
194 126 100 196 208 259 229 221 233 208 247 181 204 157 243 227 214 294 244 144 177 172 138 149 259 252 256 311 52 204 188 186 184 213 181 238 294 291 349 352 339 338 345 310 330
204 221 162 158 235 214 194 305 212 248 225 206 233 219 205 236 224 229 206 155 174 171 116 183 256 234 272 280 250 263 208 192 202 191 235 12 261 305 334 314 312 323 323 323 352
225 170 115 159 147 174 197 222 227 214 181 221 232 164 216 234 237 345 176 206 194 177 190 141 255 278 268 132 223 269 229 214 228 235 263 286 284 212 190 271 268 270 335 354 42
217 252 272 174 161 176 222 243 280 150 210 222 226 176 198 249 291 268 206 319 201 173 190 172 201 273 268 287 278 275 218 188 180 199 189 206 192 175 178 163 223 173 132 102 89